Time,TemperatureF,DewpointF,PressureIn,WindDirection,WindDirectionDegrees,WindSpeedMPH,WindSpeedGustMPH,Humidity,HourlyPrecipIn,Conditions,Clouds,dailyrainin,SolarRadiationWatts/m^2,SoftwareType,DateUTC
2013-01-09 00:00:00,22.0,20.0,-100.00,SSE,157,0.0,-999.0,89,-99.99,,,-99.99,0.000000,,2013-01-09 05:00:00,
2013-01-09 00:43:00,22.0,20.0,-100.00,SSE,157,0.0,-999.0,89,-99.99,,,-99.99,0.000000,,2013-01-09 05:43:00,
2013-01-09 00:53:00,22.0,20.0,-100.00,SSE,157,0.0,-999.0,89,-99.99,,,-99.99,0.000000,,2013-01-09 05:53:00,
2013-01-09 03:00:00,23.0,21.0,-100.00,South,180,0.0,-999.0,93,-99.99,,,-99.99,0.000000,,2013-01-09 08:00:00,
2013-01-09 03:43:00,23.0,21.0,-100.00,South,180,0.0,-999.0,93,-99.99,,,-99.99,0.000000,,2013-01-09 08:43:00,
2013-01-09 03:53:00,23.0,21.0,-100.00,South,180,0.0,-999.0,93,-99.99,,,-99.99,0.000000,,2013-01-09 08:53:00,
2013-01-09 06:00:00,33.0,27.0,-100.00,SSW,202,6.0,-999.0,78,-99.99,,,-99.99,0.000000,,2013-01-09 11:00:00,
2013-01-09 06:43:00,33.0,27.0,-100.00,SSW,202,6.0,-999.0,78,-99.99,,,-99.99,0.000000,,2013-01-09 11:43:00,
2013-01-09 06:53:00,33.0,27.0,-100.00,SSW,202,6.0,-999.0,78,-99.99,,,-99.99,0.000000,,2013-01-09 11:53:00,
2013-01-09 09:00:00,34.0,28.0,-100.00,SW,225,8.0,-999.0,79,-99.99,,,-99.99,11.600000,,2013-01-09 14:00:00,
2013-01-09 09:43:00,34.0,28.0,-100.00,SW,225,8.0,-999.0,79,-99.99,,,-99.99,11.600000,,2013-01-09 14:43:00,
2013-01-09 09:53:00,34.0,28.0,-100.00,SW,225,8.0,-999.0,79,-99.99,,,-99.99,11.600000,,2013-01-09 14:53:00,
2013-01-09 12:00:00,40.0,28.0,-100.00,WSW,247,11.0,-999.0,61,-99.99,,,-99.99,280.720001,,2013-01-09 17:00:00,
2013-01-09 12:43:00,40.0,28.0,-100.00,WSW,247,11.0,-999.0,61,-99.99,,,-99.99,280.720001,,2013-01-09 17:43:00,
2013-01-09 12:53:00,40.0,28.0,-100.00,WSW,247,11.0,-999.0,61,-99.99,,,-99.99,280.720001,,2013-01-09 17:53:00,
2013-01-09 15:00:00,43.0,23.0,-100.00,WSW,247,13.0,-999.0,45,-99.99,,,-99.99,300.440002,,2013-01-09 20:00:00,
2013-01-09 15:43:00,43.0,23.0,-100.00,WSW,247,13.0,-999.0,45,-99.99,,,-99.99,300.440002,,2013-01-09 20:43:00,
2013-01-09 15:53:00,43.0,23.0,-100.00,WSW,247,13.0,-999.0,45,-99.99,,,-99.99,300.440002,,2013-01-09 20:53:00,
2013-01-09 18:00:00,41.0,19.0,-100.00,West,270,10.0,-999.0,41,-99.99,,,-99.99,2.320000,,2013-01-09 23:00:00,
2013-01-09 18:43:00,41.0,19.0,-100.00,West,270,10.0,-999.0,41,-99.99,,,-99.99,2.320000,,2013-01-09 23:43:00,
2013-01-09 18:53:00,41.0,19.0,-100.00,West,270,10.0,-999.0,41,-99.99,,,-99.99,2.320000,,2013-01-09 23:53:00,
2013-01-09 21:00:00,36.0,22.0,-100.00,WNW,292,10.0,-999.0,57,-99.99,,,-99.99,0.000000,,2013-01-10 02:00:00,